• In Lithuania
  • List of Countries
  • For 7 days
  • Water Temperature
  • Satellite Maps
  • Weather Map
  • Weather Widgets
  • user-avatar
    Login

    Hourly Weather Barinas

    Today, 19 July, Thursday

    Time Temperature Precipitation Wind Pressure Humidity
    00:00 +25°C° 0.6 mm 1 mps 744 mmHg 76%
    01:00 +25°C° 0.6 mm 1 mps 743 mmHg 74%
    02:00 +25°C° 0.5 mm 1 mps 743 mmHg 74%
    03:00 +25°C° 0.5 mm 1 mps 743 mmHg 74%
    04:00 +24°C° 0.5 mm 1 mps 743 mmHg 74%
    05:00 +25°C° 0.2 mm 1 mps 743 mmHg 74%
    06:00 +26°C° 0.2 mm 1 mps 744 mmHg 73%
    07:00 +26°C° 0.2 mm 1 mps 744 mmHg 73%
    08:00 +27°C° 0.6 mm 1 mps 744 mmHg 73%
    09:00 +28°C° 0.6 mm 1 mps 745 mmHg 73%
    10:00 +29°C° 0.6 mm 1 mps 745 mmHg 73%
    11:00 +30°C° 0.9 mm 1 mps 744 mmHg 69%
    12:00 +31°C° 0.9 mm 1 mps 744 mmHg 65%
    13:00 +32°C° 0.9 mm 1 mps 744 mmHg 61%
    14:00 +32°C° 1.4 mm 1 mps 743 mmHg 64%
    15:00 +31°C° 1.4 mm 1 mps 743 mmHg 66%
    16:00 +31°C° 1.4 mm 2 mps 742 mmHg 68%
    17:00 +30°C° 0.9 mm 1 mps 742 mmHg 73%
    18:00 +28°C° 0.9 mm 1 mps 743 mmHg 78%
    19:00 +26°C° 0.9 mm 1 mps 743 mmHg 83%
    20:00 +26°C° 0.2 mm 1 mps 743 mmHg 80%
    21:00 +26°C° 0.2 mm 1 mps 744 mmHg 78%
    22:00 +25°C° 0.2 mm 1 mps 744 mmHg 75%
    23:00 +25°C° 0.2 mm 2 mps 744 mmHg 75%

    Tomorrow, 20 July, Friday

    Time Temperature Precipitation Wind Pressure Humidity
    00:00 +25°C° 0.2 mm 2 mps 744 mmHg 74%
    01:00 +25°C° 0.2 mm 2 mps 744 mmHg 74%
    02:00 +25°C° 0.2 mm 1 mps 743 mmHg 73%
    03:00 +25°C° 0.2 mm 1 mps 743 mmHg 73%
    04:00 +25°C° 0.2 mm 1 mps 743 mmHg 72%
    05:00 +25°C° 0.6 mm 1 mps 744 mmHg 75%
    06:00 +25°C° 0.6 mm 1 mps 744 mmHg 77%
    07:00 +25°C° 0.6 mm 1 mps 745 mmHg 80%
    08:00 +26°C° 0.7 mm 2 mps 745 mmHg 78%
    09:00 +27°C° 0.7 mm 2 mps 745 mmHg 76%
    10:00 +28°C° 0.7 mm 2 mps 746 mmHg 74%
    11:00 +29°C° 0.2 mm 2 mps 745 mmHg 70%
    12:00 +30°C° 0.2 mm 2 mps 744 mmHg 66%
    13:00 +33°C° 0.2 mm 3 mps 744 mmHg 62%
    14:00 +32°C° 0.1 mm 2 mps 743 mmHg 61%
    15:00 +32°C° 0.1 mm 2 mps 742 mmHg 60%
    16:00 +32°C° 0.1 mm 2 mps 742 mmHg 59%
    17:00 +30°C° 0 mm 2 mps 742 mmHg 60%
    18:00 +29°C° 0 mm 2 mps 742 mmHg 61%
    19:00 +27°C° 0 mm 2 mps 743 mmHg 62%
    20:00 +27°C° 0.1 mm 2 mps 743 mmHg 61%
    21:00 +27°C° 0.1 mm 2 mps 744 mmHg 60%
    22:00 +26°C° 0.1 mm 2 mps 744 mmHg 59%
    23:00 +26°C° 0.6 mm 2 mps 744 mmHg 64%

    Day after tomorrow, 21 July, Saturday

    Time Temperature Precipitation Wind Pressure Humidity
    00:00 +25°C° 0.6 mm 1 mps 744 mmHg 69%
    01:00 +25°C° 0.6 mm 1 mps 744 mmHg 74%
    02:00 +24°C° 0.7 mm 1 mps 744 mmHg 76%
    03:00 +24°C° 0.7 mm 1 mps 744 mmHg 77%
    04:00 +24°C° 0.7 mm 1 mps 744 mmHg 78%
    05:00 +25°C° 0.7 mm 1 mps 744 mmHg 79%
    06:00 +25°C° 0.7 mm 1 mps 744 mmHg 79%
    07:00 +25°C° 0.7 mm 1 mps 745 mmHg 80%
    08:00 +27°C° 0.4 mm 2 mps 745 mmHg 76%
    09:00 +29°C° 0.4 mm 2 mps 745 mmHg 72%
    10:00 +30°C° 0.4 mm 3 mps 746 mmHg 68%
    11:00 +31°C° 0.5 mm 3 mps 745 mmHg 65%
    12:00 +33°C° 0.5 mm 3 mps 744 mmHg 63%
    13:00 +33°C° 0.5 mm 3 mps 743 mmHg 60%
    14:00 +32°C° 0.5 mm 2 mps 743 mmHg 61%
    15:00 +32°C° 0.5 mm 2 mps 742 mmHg 62%
    16:00 +32°C° 0.5 mm 2 mps 742 mmHg 63%
    17:00 +30°C° 0.2 mm 2 mps 742 mmHg 64%
    18:00 +29°C° 0.2 mm 1 mps 743 mmHg 66%
    19:00 +27°C° 0.2 mm 1 mps 743 mmHg 68%
    20:00 +27°C° 0.1 mm 1 mps 743 mmHg 65%
    21:00 +26°C° 0.1 mm 1 mps 744 mmHg 62%
    22:00 +26°C° 0.1 mm 1 mps 744 mmHg 59%
    23:00 +26°C° 0.1 mm 1 mps 744 mmHg 62%

    22 July, Sunday

    Time Temperature Precipitation Wind Pressure Humidity
    00:00 +25°C° 0.1 mm 1 mps 744 mmHg 64%
    01:00 +25°C° 0.1 mm 1 mps 743 mmHg 67%
    02:00 +25°C° 0.5 mm 1 mps 743 mmHg 71%
    03:00 +24°C° 0.5 mm 1 mps 743 mmHg 75%
    04:00 +24°C° 0.5 mm 1 mps 743 mmHg 79%
    05:00 +24°C° 1.5 mm 1 mps 744 mmHg 82%
    06:00 +23°C° 1.5 mm 1 mps 744 mmHg 85%
    07:00 +23°C° 1.5 mm 1 mps 745 mmHg 88%
    08:00 +24°C° 2.1 mm 1 mps 745 mmHg 87%
    09:00 +25°C° 2.1 mm 1 mps 745 mmHg 86%
    10:00 +26°C° 2.1 mm 2 mps 745 mmHg 85%
    11:00 +28°C° 0.6 mm 2 mps 745 mmHg 77%
    12:00 +30°C° 0.6 mm 2 mps 744 mmHg 69%
    13:00 +32°C° 0.6 mm 2 mps 744 mmHg 61%
    14:00 +32°C° 0.3 mm 2 mps 743 mmHg 62%
    15:00 +32°C° 0.3 mm 2 mps 742 mmHg 63%
    16:00 +32°C° 0.3 mm 1 mps 742 mmHg 64%
    17:00 +30°C° 0.5 mm 1 mps 742 mmHg 70%
    18:00 +28°C° 0.5 mm 1 mps 742 mmHg 76%
    19:00 +26°C° 0.5 mm 1 mps 742 mmHg 82%
    20:00 +26°C° 0.3 mm 1 mps 743 mmHg 81%
    21:00 +26°C° 0.3 mm 1 mps 744 mmHg 80%
    22:00 +26°C° 0.3 mm 1 mps 744 mmHg 78%
    23:00 +25°C° 0.5 mm 1 mps 744 mmHg 78%

    23 July, Monday

    Time Temperature Precipitation Wind Pressure Humidity
    00:00 +25°C° 0.5 mm 1 mps 743 mmHg 77%
    01:00 +25°C° 0.5 mm 1 mps 743 mmHg 77%
    02:00 +25°C° 0.4 mm 1 mps 743 mmHg 78%
    03:00 +25°C° 0.4 mm 1 mps 743 mmHg 78%
    04:00 +24°C° 0.4 mm 1 mps 743 mmHg 79%
    05:00 +25°C° 0.7 mm 1 mps 744 mmHg 81%
    06:00 +25°C° 0.7 mm 1 mps 744 mmHg 82%
    07:00 +25°C° 0.7 mm 1 mps 745 mmHg 84%
    08:00 +26°C° 0.9 mm 1 mps 745 mmHg 84%
    09:00 +26°C° 0.9 mm 1 mps 745 mmHg 85%
    10:00 +26°C° 0.9 mm 1 mps 745 mmHg 85%
    11:00 +27°C° 0.6 mm 1 mps 745 mmHg 84%
    12:00 +27°C° 0.6 mm 1 mps 744 mmHg 82%
    13:00 +28°C° 0.6 mm 1 mps 744 mmHg 81%
    14:00 +29°C° 0.4 mm 1 mps 743 mmHg 77%
    15:00 +29°C° 0.4 mm 1 mps 742 mmHg 74%
    16:00 +30°C° 0.4 mm 1 mps 742 mmHg 71%
    17:00 +29°C° 0.3 mm 1 mps 742 mmHg 77%
    18:00 +27°C° 0.3 mm 1 mps 743 mmHg 82%
    19:00 +26°C° 0.3 mm 1 mps 744 mmHg 88%
    20:00 +26°C° 0.1 mm 1 mps 744 mmHg 87%
    21:00 +25°C° 0.1 mm 1 mps 744 mmHg 86%
    22:00 +25°C° 0.1 mm 1 mps 745 mmHg 86%
    23:00 +25°C° 0.1 mm 1 mps 745 mmHg 83%

    24 July, Tuesday

    Time Temperature Precipitation Wind Pressure Humidity
    00:00 +25°C° 0.1 mm 1 mps 744 mmHg 81%
    01:00 +24°C° 0.1 mm 1 mps 744 mmHg 79%
    02:00 +24°C° 0.2 mm 1 mps 744 mmHg 79%
    03:00 +24°C° 0.2 mm 1 mps 744 mmHg 79%
    04:00 +24°C° 0.2 mm 1 mps 744 mmHg 79%
    05:00 +25°C° 0.2 mm 1 mps 745 mmHg 78%
    06:00 +25°C° 0.2 mm 1 mps 745 mmHg 77%
    07:00 +26°C° 0.2 mm 1 mps 746 mmHg 76%
    08:00 +27°C° 0.6 mm 1 mps 746 mmHg 76%
    09:00 +28°C° 0.6 mm 1 mps 746 mmHg 75%
    10:00 +30°C° 0.6 mm 1 mps 746 mmHg 74%
    11:00 +30°C° 0.9 mm 1 mps 745 mmHg 72%
    12:00 +31°C° 0.9 mm 1 mps 745 mmHg 69%
    13:00 +32°C° 0.9 mm 1 mps 744 mmHg 67%
    14:00 +32°C° 1.3 mm 1 mps 744 mmHg 67%
    15:00 +32°C° 1.3 mm 1 mps 743 mmHg 68%
    16:00 +31°C° 1.3 mm 1 mps 743 mmHg 69%
    17:00 +30°C° 0.6 mm 1 mps 743 mmHg 75%
    18:00 +28°C° 0.6 mm 1 mps 744 mmHg 80%
    19:00 +26°C° 0.6 mm 1 mps 744 mmHg 86%
    20:00 +26°C° 0.3 mm 1 mps 744 mmHg 86%
    21:00 +26°C° 0.3 mm 1 mps 745 mmHg 86%
    22:00 +25°C° 0.3 mm 1 mps 745 mmHg 86%
    23:00 +25°C° 0.8 mm 1 mps 745 mmHg 85%
    Show more